Date String (YYYY-MM-DD hh:mm:ss) UTC,Instrument flags,absolute air pressure of the measurement (hPa),sample flow rate (lpm),inlet stack bypass flow (lpm),air temperature of the measurement (°C),ambient temperature measured by the external sensor (°C),aerosol sample conditioner tube jacket temperature (°C),OPC LED temperature (°C),internal box temperature (°C),relative humidity of the measurement (%),span deviation,mass concentration of particles derived from Lorenz-Mie calculation of OPC scattering (μg/m³),mass concentration of particles derived from Lorenz-Mie calculation of OPC scattering (μg/m³),mass concentration of particles derived from Lorenz-Mie calculation of OPC scattering (μg/m³)
DateTimeUTC,F1_M11,P_M11,Q1_M11,Q2_M11,T1_M11,T2_M11,T3_M11,T4_M11,T5_M11,U1_M11,ZSPAN_M11,X2_M11,X0_M11,X1_M11
2024-04-30 02:00:00,SystemResetWarning,0823.3,5.01,000.00,025.1,023.8,000.0,033.7,026.9,015.7,0000.0,0003.26,0008.00,0001.71
2024-04-30 02:01:00,SystemResetWarning,0823.3,4.99,000.00,025.2,024.1,000.0,033.7,027.0,015.8,0000.0,0003.29,0008.82,0001.71
2024-04-30 02:02:00,SystemResetWarning,0823.3,5.00,000.00,025.2,024.3,000.0,033.7,027.1,016.2,0000.0,0003.30,0008.08,0001.71
2024-04-30 02:03:00,SystemResetWarning,0823.2,4.99,000.00,025.3,024.4,000.0,033.7,027.1,016.4,0000.0,0003.24,0007.76,0001.71
2024-04-30 02:04:00,SystemResetWarning,0823.3,5.01,000.00,025.3,024.5,000.0,033.7,027.2,016.1,0000.0,0003.25,0007.70,0001.69
2024-04-30 02:05:00,SystemResetWarning,0823.3,5.01,000.00,025.4,024.7,000.0,033.7,027.3,015.8,0000.0,0003.25,0007.75,0001.70
2024-04-30 02:06:00,SystemResetWarning,0823.3,4.99,000.00,025.4,024.7,000.0,033.7,027.3,015.8,0000.0,0003.21,0007.65,0001.68
2024-04-30 02:07:00,SystemResetWarning,0823.3,4.99,000.00,025.5,024.8,000.0,033.8,027.4,015.7,0000.0,0003.21,0008.32,0001.67
2024-04-30 02:08:00,SystemResetWarning,0823.3,4.99,000.00,025.5,024.9,000.0,033.8,027.4,016.4,0000.0,0003.21,0008.33,0001.67
2024-04-30 02:09:00,SystemResetWarning,0823.4,5.01,000.00,025.6,025.0,000.0,033.8,027.5,017.0,0000.0,0003.26,0008.49,0001.67
2024-04-30 02:10:00,SystemResetWarning,0823.3,5.01,000.00,025.6,025.0,000.0,033.8,027.5,016.7,0000.0,0003.24,0008.55,0001.65
2024-04-30 02:11:00,SystemResetWarning,0823.3,5.00,000.00,025.6,025.1,000.0,033.9,027.5,016.5,0000.0,0003.23,0008.50,0001.66
2024-04-30 02:12:00,SystemResetWarning,0823.3,4.99,000.00,025.7,025.1,000.0,033.9,027.6,016.6,0000.0,0003.22,0007.82,0001.67
2024-04-30 02:13:00,SystemResetWarning,0823.3,4.99,000.00,025.7,025.1,000.0,033.9,027.6,016.7,0000.0,0003.23,0008.00,0001.66
2024-04-30 02:14:00,SystemResetWarning,0823.3,4.99,000.00,025.8,025.2,000.0,034.0,027.7,016.4,0000.0,0003.29,0008.23,0001.67
2024-04-30 02:15:00,SystemResetWarning,0823.3,5.01,000.00,025.8,025.2,000.0,034.0,027.7,016.7,0000.0,0003.27,0008.23,0001.66
2024-04-30 02:16:00,SystemResetWarning,0823.3,5.01,000.00,025.8,025.3,000.0,034.0,027.7,016.8,0000.0,0003.22,0008.11,0001.65
2024-04-30 02:17:00,SystemResetWarning,0823.3,5.01,000.00,025.9,025.3,000.0,034.1,027.8,016.3,0000.0,0003.24,0008.54,0001.65
2024-04-30 02:18:00,SystemResetWarning,0823.3,5.00,000.00,025.9,025.3,000.0,034.1,027.8,015.2,0000.0,0003.26,0008.69,0001.64
2024-04-30 02:19:00,SystemResetWarning,0823.3,5.00,000.00,025.9,025.4,000.0,034.1,027.8,014.9,0000.0,0003.21,0008.45,0001.61
2024-04-30 02:20:00,SystemResetWarning,0823.3,4.99,000.00,026.0,025.4,000.0,034.2,027.8,015.1,0000.0,0003.18,0008.46,0001.59
2024-04-30 02:21:00,SystemResetWarning,0823.2,4.99,000.00,025.8,023.7,000.0,034.2,026.8,015.2,0000.0,0003.23,0008.50,0001.60
2024-04-30 02:22:00,SystemResetWarning,0823.2,5.00,000.00,025.3,022.1,000.0,034.2,025.9,015.5,0000.0,0003.29,0008.60,0001.61
2024-04-30 02:23:00,SystemResetWarning,0823.1,5.01,000.00,025.1,022.2,000.0,034.1,025.7,015.5,0000.0,0003.25,0008.45,0001.59
2024-04-30 02:24:00,SystemResetWarning,0823.2,5.00,000.00,025.0,022.5,000.0,033.9,026.1,015.7,0000.0,0003.21,0008.21,0001.57
2024-04-30 02:25:00,SystemResetWarning,0823.2,5.00,000.00,025.0,022.9,000.0,033.8,026.4,015.8,0000.0,0003.21,0008.47,0001.55
2024-04-30 02:26:00,SystemResetWarning,0823.1,5.00,000.00,025.0,023.2,000.0,033.8,026.6,015.7,0000.0,0003.17,0008.96,0001.53
2024-04-30 02:27:00,SystemResetWarning,0823.1,4.99,000.00,025.1,023.5,000.0,033.7,026.7,015.7,0000.0,0003.14,0008.92,0001.53
2024-04-30 02:28:00,SystemResetWarning,0823.2,4.99,000.00,025.1,023.7,000.0,033.7,026.8,015.8,0000.0,0003.11,0008.75,0001.53
2024-04-30 02:29:00,SystemResetWarning,0823.2,5.00,000.00,025.1,024.0,000.0,033.7,026.9,015.8,0000.0,0003.06,0008.14,0001.53
2024-04-30 02:30:00,SystemResetWarning,0823.3,5.00,000.00,025.2,024.1,000.0,033.7,027.0,015.7,0000.0,0003.05,0008.21,0001.55
2024-04-30 02:31:00,SystemResetWarning,0823.3,5.00,000.00,025.2,024.3,000.0,033.7,027.1,015.6,0000.0,0002.97,0008.33,0001.55
2024-04-30 02:32:00,SystemResetWarning,0823.3,5.01,000.00,025.3,024.4,000.0,033.7,027.1,015.7,0000.0,0002.95,0008.39,0001.54
2024-04-30 02:33:00,SystemResetWarning,0823.3,5.00,000.00,025.3,024.5,000.0,033.7,027.2,015.5,0000.0,0002.86,0008.29,0001.52
2024-04-30 02:34:00,SystemResetWarning,0823.3,5.00,000.00,025.3,024.6,000.0,033.7,027.2,015.4,0000.0,0002.80,0008.22,0001.51
2024-04-30 02:35:00,SystemResetWarning,0823.3,4.99,000.00,025.4,024.7,000.0,033.7,027.3,015.3,0000.0,0002.77,0008.33,0001.50
2024-04-30 02:36:00,SystemResetWarning,0823.3,5.00,000.00,025.4,024.7,000.0,033.7,027.3,015.3,0000.0,0002.80,0008.08,0001.50
2024-04-30 02:37:00,SystemResetWarning,0823.3,5.01,000.00,025.5,024.8,000.0,033.8,027.4,015.4,0000.0,0002.89,0007.75,0001.51
2024-04-30 02:38:00,SystemResetWarning,0823.3,5.01,000.00,025.5,024.9,000.0,033.8,027.4,015.4,0000.0,0002.92,0007.91,0001.51
2024-04-30 02:39:00,SystemResetWarning,0823.3,5.00,000.00,025.6,024.9,000.0,033.8,027.5,015.6,0000.0,0002.88,0007.58,0001.50
2024-04-30 02:40:00,SystemResetWarning,0823.3,4.98,000.00,025.6,025.0,000.0,033.8,027.5,015.7,0000.0,0002.90,0007.51,0001.51
2024-04-30 02:41:00,SystemResetWarning,0823.3,5.01,000.00,025.6,025.0,000.0,033.9,027.5,015.7,0000.0,0002.97,0007.61,0001.52
2024-04-30 02:42:00,SystemResetWarning,0823.3,5.01,000.00,025.7,025.1,000.0,033.9,027.6,015.6,0000.0,0002.97,0007.34,0001.52
2024-04-30 02:43:00,SystemResetWarning,0823.3,4.99,000.00,025.7,025.1,000.0,033.9,027.6,015.2,0000.0,0002.92,0007.17,0001.51
2024-04-30 02:44:00,SystemResetWarning,0823.3,4.98,000.00,025.7,025.2,000.0,034.0,027.7,015.0,0000.0,0002.99,0007.35,0001.52
2024-04-30 02:45:00,SystemResetWarning,0823.3,5.00,000.00,025.8,025.2,000.0,034.0,027.7,015.2,0000.0,0003.07,0007.50,0001.55
2024-04-30 02:46:00,SystemResetWarning,0823.3,5.01,000.00,025.8,025.3,000.0,034.0,027.7,015.2,0000.0,0003.10,0007.61,0001.57
2024-04-30 02:47:00,SystemResetWarning,0823.3,5.01,000.00,025.8,025.3,000.0,034.0,027.7,015.1,0000.0,0003.07,0007.70,0001.58
2024-04-30 02:48:00,SystemResetWarning,0823.3,4.99,000.00,025.9,025.3,000.0,034.1,027.8,015.1,0000.0,0003.03,0008.14,0001.58
2024-04-30 02:49:00,SystemResetWarning,0823.3,4.99,000.00,025.9,025.4,000.0,034.1,027.8,015.1,0000.0,0003.04,0007.98,0001.57
2024-04-30 02:50:00,SystemResetWarning,0823.2,5.00,000.00,025.9,025.4,000.0,034.1,027.8,015.1,0000.0,0003.14,0008.14,0001.57
2024-04-30 02:51:00,SystemResetWarning,0823.3,5.02,000.00,025.9,025.4,000.0,034.2,027.8,015.1,0000.0,0003.17,0008.28,0001.57
2024-04-30 02:52:00,SystemResetWarning,0823.2,5.00,000.00,026.0,025.4,000.0,034.2,027.9,015.3,0000.0,0003.17,0008.42,0001.58
2024-04-30 02:53:00,SystemResetWarning,0823.2,4.99,000.00,026.0,025.4,000.0,034.2,027.9,015.2,0000.0,0003.22,0008.59,0001.61
2024-04-30 02:54:00,SystemResetWarning,0823.2,4.99,000.00,026.0,025.4,000.0,034.2,027.9,015.4,0000.0,0003.28,0008.75,0001.65
2024-04-30 02:55:00,SystemResetWarning,0823.2,5.01,000.00,026.0,025.4,000.0,034.3,027.9,015.1,0000.0,0003.28,0008.76,0001.65
2024-04-30 02:56:00,SystemResetWarning,0823.1,5.00,000.00,026.0,025.2,000.0,034.3,027.7,015.1,0000.0,0003.26,0008.65,0001.64
2024-04-30 02:57:00,SystemResetWarning,0823.0,4.98,000.00,025.7,023.0,000.0,034.3,026.5,015.5,0000.0,0003.30,0008.52,0001.64
2024-04-30 02:58:00,SystemResetWarning,0823.0,5.03,000.00,025.3,022.0,000.0,034.3,025.8,016.0,0000.0,0003.26,0008.48,0001.62
2024-04-30 02:59:00,SystemResetWarning,0823.0,4.99,000.00,025.0,022.2,000.0,034.1,025.7,016.0,0000.0,0003.27,0007.94,0001.62
